SCP
0 0 0 0 0 0 0 0 0 0 0 0 0 0 0 0 0 0 0 0 0 0 0 0 0 0 0
0 0 0 0 0 0 0 0 0 0 0 0 0 0 0 0 0 0 0 0 0 0 0 0 0 0 0
0 0 0 0 0 0 0 0 0 0 0 0 0 0 0 0 0 0 0 0 0 0 0 0 0 0 0
0 0 0 0 0 0 0 0 0 0 0 0 0 0 0 0 0 0 0 0 0 0 0 0 0 0 0
0 0 0 0 0 0 0 0 0 0 0 0 0 0 0 0 0 0 0 0 0 0 0 0 0 0 0
0 0 0 0 0 0 0 0 0 0 0 0 0 0 0 0 0 0 0 0 0 0 0 0 0 0 0
0 0 0 0 0 0 0 0 0 0 0 0 0 0 0 0 0 0 0 0 0 0 0 0 0 0 0
0 0 0 0 0 0 0 0 0 0 0 0 0 0 0 0 0 0 0 0 0 0 0 0 0 0 0
0 0 0 0 0 0 0 0 0 0 0 0 0 0 0 0 0 0 0 0 0 0 0 0 0 0 0
0 0 0 0 0 0 0 0 0 0 0 0 0 0 0 0 0 0 0 0 0 0 0 0 0 0 0
0 0 0 0 0 0 0 0 0 0 0 0 0 0 0 0 0 0 0 0 0 0 0 0 0 0 0
0 0 0 0 0 0 0 0 0 0 0 0 0 0 0 0 0 0 0 0 0 0 0 0 0 0 0
0 0 0 0 0 0 0 0 0 0 0 0 0 0 0 0 0 0 0 0 0 0 0 0 0 0 0
0 0 0 0 0 0 0 0 0 0 0 0 0 0 0 0 0 0 0 0 0 0 0 0 0 0 0
0 0 -0 0 0 0 0 0 0 0 0 0 0 0 0 0 0 0 0 0 0 0 0 0 0 0 0
0 0 -0 0 0 0 0 0 0 0 0 0 0 0 0 0 0 0 0 0 0 0 0 0 0 0 0
Wind_Speed_500mb
32 31 30 28 26 25 23 32 46 40 41 27 19 36 50 49 39 39 44 37 37 35 34 28 25 21 18
31 31 30 29 29 35 29 29 35 51 48 36 34 52 56 55 44 44 48 41 38 36 31 26 23 20 14
33 32 33 30 32 33 32 23 33 39 55 52 53 61 46 49 47 37 46 44 37 35 28 24 21 19 15
33 34 36 33 30 32 26 41 28 32 36 43 49 57 32 36 37 39 41 41 40 40 31 25 22 18 14
35 34 35 36 33 32 28 35 37 41 39 39 36 32 30 47 35 31 33 45 42 38 31 23 21 18 14
37 37 37 36 33 32 38 40 47 37 57 48 41 35 27 39 26 24 31 44 39 34 30 25 22 17 14
38 37 37 37 35 33 35 53 38 39 62 48 56 48 37 32 42 39 44 46 41 38 33 25 22 18 17
42 38 39 36 35 31 33 35 53 42 41 35 55 57 58 28 44 48 52 52 39 45 36 29 23 20 17
41 39 38 38 36 32 32 37 35 38 38 38 45 61 62 39 36 64 60 58 48 50 44 41 30 21 16
42 40 38 36 34 32 30 32 32 32 32 40 43 40 57 62 31 32 38 43 57 52 47 41 35 26 19
41 38 36 33 30 33 25 27 29 35 27 28 33 41 56 56 39 23 21 42 51 53 40 45 37 25 15
40 36 34 32 25 27 24 21 24 30 29 28 36 39 58 49 44 40 24 31 38 46 39 36 28 22 20
38 36 30 23 23 21 25 22 25 26 30 34 36 42 51 57 54 44 46 41 41 47 40 32 25 24 22
34 31 33 25 16 12 15 18 24 26 31 36 39 39 47 51 39 43 46 54 48 53 52 42 25 20 21
31 28 24 19 8 1 14 18 20 26 30 34 33 38 50 65 58 50 51 52 62 57 56 29 17 12 24
26 26 24 17 1 1 12 17 15 23 22 29 41 41 53 57 67 57 49 58 61 61 54 39 21 16 18
Wind_Direction_500mb
307 301 292 276 271 268 265 254 232 228 213 216 242 227 221 216 200 183 174 179 178 176 173 173 164 154 135
304 298 293 280 267 263 263 259 256 233 220 218 246 233 234 212 203 183 178 183 187 186 185 185 174 164 160
308 299 294 286 263 261 261 242 252 245 237 240 238 224 242 177 178 183 184 186 189 186 176 167 175 176 164
310 299 292 287 278 260 268 237 237 226 234 231 226 229 237 247 200 184 185 190 193 187 176 173 176 182 175
315 305 292 287 279 271 253 254 227 214 218 219 214 217 218 167 179 182 186 195 203 198 181 182 184 188 184
315 308 299 288 279 269 258 253 237 217 216 218 217 220 227 234 204 191 205 197 190 182 193 190 192 186 179
317 307 298 290 283 268 259 240 252 230 240 228 223 216 221 232 220 207 206 196 190 187 188 189 187 181 166
319 311 300 293 284 271 263 252 240 246 243 229 230 229 230 224 214 216 205 198 191 182 176 182 175 170 158
319 314 302 293 289 276 261 254 258 241 242 243 249 226 217 225 219 202 205 202 201 177 183 173 163 162 152
319 315 307 296 289 279 264 252 252 261 246 245 247 239 220 221 229 224 207 202 181 177 177 173 168 167 160
320 316 312 301 289 277 254 247 247 247 254 244 233 237 214 220 214 221 197 201 181 180 178 179 167 161 169
322 319 316 306 290 277 251 239 246 251 248 243 231 226 205 209 210 201 195 190 204 184 182 177 166 179 187
326 321 319 308 284 270 258 243 244 251 259 248 237 222 224 201 205 202 201 191 194 202 175 174 190 199 198
329 327 327 326 301 271 268 256 251 243 250 244 242 229 214 213 214 209 205 187 193 205 185 180 164 172 192
333 331 326 322 313 308 270 263 254 252 256 250 239 235 214 214 218 223 214 215 205 203 193 175 159 174 183
338 342 337 343 4 348 287 289 271 252 271 277 244 239 216 210 217 218 219 211 209 199 186 192 182 179 179
Wind_Speed_850mb
32 31 30 28 26 25 23 32 46 40 41 27 19 36 50 49 39 39 44 37 37 35 34 28 25 21 18
31 31 30 29 29 35 29 29 35 51 48 36 34 52 56 55 44 44 48 41 38 36 31 26 23 20 14
33 32 33 30 32 33 32 23 33 39 55 52 53 61 46 49 47 37 46 44 37 35 28 24 21 19 15
33 34 36 33 30 32 26 41 28 32 36 43 49 57 32 36 37 39 41 41 40 40 31 25 22 18 14
35 34 35 36 33 32 28 35 37 41 39 39 36 32 30 47 35 31 33 45 42 38 31 23 21 18 14
37 37 37 36 33 32 38 40 47 37 57 48 41 35 27 39 26 24 31 44 39 34 30 25 22 17 14
38 37 37 37 35 33 35 53 38 39 62 48 56 48 37 32 42 39 44 46 41 38 33 25 22 18 17
42 38 39 36 35 31 33 35 53 42 41 35 55 57 58 28 44 48 52 52 39 45 36 29 23 20 17
41 39 38 38 36 32 32 37 35 38 38 38 45 61 62 39 36 64 60 58 48 50 44 41 30 21 16
42 40 38 36 34 32 30 32 32 32 32 40 43 40 57 62 31 32 38 43 57 52 47 41 35 26 19
41 38 36 33 30 33 25 27 29 35 27 28 33 41 56 56 39 23 21 42 51 53 40 45 37 25 15
40 36 34 32 25 27 24 21 24 30 29 28 36 39 58 49 44 40 24 31 38 46 39 36 28 22 20
38 36 30 23 23 21 25 22 25 26 30 34 36 42 51 57 54 44 46 41 41 47 40 32 25 24 22
34 31 33 25 16 12 15 18 24 26 31 36 39 39 47 51 39 43 46 54 48 53 52 42 25 20 21
31 28 24 19 8 1 14 18 20 26 30 34 33 38 50 65 58 50 51 52 62 57 56 29 17 12 24
26 26 24 17 1 1 12 17 15 23 22 29 41 41 53 57 67 57 49 58 61 61 54 39 21 16 18
Wind_Direction_850mb
307 301 292 276 271 268 265 254 232 228 213 216 242 227 221 216 200 183 174 179 178 176 173 173 164 154 135
304 298 293 280 267 263 263 259 256 233 220 218 246 233 234 212 203 183 178 183 187 186 185 185 174 164 160
308 299 294 286 263 261 261 242 252 245 237 240 238 224 242 177 178 183 184 186 189 186 176 167 175 176 164
310 299 292 287 278 260 268 237 237 226 234 231 226 229 237 247 200 184 185 190 193 187 176 173 176 182 175
315 305 292 287 279 271 253 254 227 214 218 219 214 217 218 167 179 182 186 195 203 198 181 182 184 188 184
315 308 299 288 279 269 258 253 237 217 216 218 217 220 227 234 204 191 205 197 190 182 193 190 192 186 179
317 307 298 290 283 268 259 240 252 230 240 228 223 216 221 232 220 207 206 196 190 187 188 189 187 181 166
319 311 300 293 284 271 263 252 240 246 243 229 230 229 230 224 214 216 205 198 191 182 176 182 175 170 158
319 314 302 293 289 276 261 254 258 241 242 243 249 226 217 225 219 202 205 202 201 177 183 173 163 162 152
319 315 307 296 289 279 264 252 252 261 246 245 247 239 220 221 229 224 207 202 181 177 177 173 168 167 160
320 316 312 301 289 277 254 247 247 247 254 244 233 237 214 220 214 221 197 201 181 180 178 179 167 161 169
322 319 316 306 290 277 251 239 246 251 248 243 231 226 205 209 210 201 195 190 204 184 182 177 166 179 187
326 321 319 308 284 270 258 243 244 251 259 248 237 222 224 201 205 202 201 191 194 202 175 174 190 199 198
329 327 327 326 301 271 268 256 251 243 250 244 242 229 214 213 214 209 205 187 193 205 185 180 164 172 192
333 331 326 322 313 308 270 263 254 252 256 250 239 235 214 214 218 223 214 215 205 203 193 175 159 174 183
338 342 337 343 4 348 287 289 271 252 271 277 244 239 216 210 217 218 219 211 209 199 186 192 182 179 179